Torna al catalogo

TIANZHOU 10

AttivoScienzaVLEO
NORAD 69049·PAYLOAD·🇨🇳 China

Lanciato May 11, 2026 da Wenchang Space Launch Site

Loading…

Prossimi Passaggi (prossime 24 ore)

TLE

AggiornatoSource: Space-Track

Epoca: Sep 14, 2026, 14:01 UTC

1 69049U 26102A   26257.58463244  .00018605  00000-0  22780-3 0  9999
2 69049  41.4676 139.2408 0002663 278.8217  81.2320 15.59928303307941

Traccia TIANZHOU 10 in tempo reale con AllMySat

Download on the App Store